RH
1 3 4 6 13 18 22 24 21 28 31 30 33 26 15 19 22 15 14 14 29 48 53 51 42 39 45 60 76 90 93 84 82 80 83 95 101 93 85 84 82 79 77 74 66 62 63 62 62 66 74 79 78 78 77 77 77 74 73 70 65 64 64 62 61 61 60 59 59 60 62 63 66 67 67 69 72 75 75 75 75 76 77 70 61 51 44 40 32 28 25 21 19 19 21 20 21
3 4 2 9 21 22 22 23 27 35 34 28 28 26 18 20 20 14 14 12 34 56 54 51 45 50 57 65 73 80 94 101 97 93 96 101 99 93 88 83 77 75 72 72 69 65 67 66 64 68 77 81 79 79 79 79 80 77 75 73 69 67 66 65 64 64 64 63 64 64 65 66 68 68 69 70 75 80 80 81 79 79 80 77 68 55 50 41 34 37 28 20 20 17 17 19 19
10 10 6 13 21 21 22 24 33 36 31 25 20 25 20 17 14 12 14 12 38 58 56 58 58 63 68 74 78 82 95 101 100 100 101 100 100 98 91 83 77 74 71 72 71 66 65 65 65 68 76 81 80 81 81 82 82 80 77 75 74 71 68 68 68 68 68 68 67 68 68 68 68 68 69 69 73 77 81 82 82 83 80 77 68 61 70 63 54 63 55 28 18 19 16 18 20
13 17 17 17 19 19 25 30 41 38 30 27 19 22 22 17 13 12 11 15 44 57 55 61 67 70 72 85 88 88 97 99 101 100 100 99 98 96 87 81 79 76 74 71 69 67 64 63 64 64 72 79 81 82 82 84 85 83 77 75 76 74 71 70 71 70 71 72 69 70 70 68 66 66 67 68 70 72 75 77 79 80 76 71 59 59 78 77 67 79 86 54 23 19 20 23 25
12 19 20 18 20 19 25 32 43 37 25 28 23 22 25 17 11 14 10 19 40 45 52 61 69 74 75 87 88 91 99 99 101 100 101 97 90 90 83 79 80 75 72 71 68 66 64 62 62 65 69 75 81 82 82 86 86 84 78 75 75 73 72 72 70 68 68 71 72 70 67 64 63 65 66 66 62 59 59 59 59 59 57 53 43 51 64 66 68 71 79 61 31 24 22 24 27
16 19 19 19 19 18 26 30 35 34 22 25 25 22 22 15 13 16 10 22 41 39 47 61 67 74 85 94 94 98 99 98 101 100 96 91 92 89 81 79 79 73 71 71 68 66 64 61 61 68 69 70 80 83 82 85 87 85 78 74 71 69 69 69 67 64 64 69 72 68 61 59 61 63 61 57 51 47 47 46 45 44 44 41 38 47 48 45 54 57 58 51 34 32 31 29 35
19 19 18 20 20 19 32 38 36 33 25 22 22 21 18 16 15 15 11 17 38 46 54 65 62 74 92 91 95 99 96 97 96 95 91 90 98 91 81 81 78 74 73 71 67 66 63 59 60 65 68 70 80 85 83 85 87 84 77 71 67 66 66 65 64 62 63 67 68 60 55 56 56 54 50 47 46 47 48 47 46 44 42 39 36 36 36 34 37 40 45 48 38 39 46 44 48
18 17 17 23 26 24 31 34 32 32 29 22 18 18 15 16 14 13 13 9 27 49 62 68 61 80 99 88 96 100 95 97 89 92 94 93 98 90 84 81 77 74 72 70 67 67 66 62 61 62 64 70 82 85 83 84 86 82 75 68 65 65 64 62 62 62 64 64 60 55 53 51 49 46 46 48 50 51 50 48 45 43 41 38 36 33 33 33 33 33 32 40 42 42 57 60 59
17 17 16 23 29 28 33 29 23 25 24 19 16 14 13 13 12 13 14 12 29 53 67 67 61 83 101 94 100 100 98 98 90 96 98 95 95 88 85 80 75 73 71 69 67 67 66 65 64 65 62 66 78 81 81 84 83 80 73 67 65 65 61 60 61 62 63 61 57 52 49 47 48 49 52 55 56 56 52 49 47 43 41 39 39 37 35 31 27 29 26 32 41 44 61 66 61
18 17 16 27 32 29 33 31 28 26 20 18 15 13 13 10 11 13 10 13 34 62 72 61 66 88 97 97 101 99 100 96 91 98 99 94 90 85 84 81 76 73 71 68 66 64 66 68 67 67 60 59 68 71 75 78 76 74 70 66 65 63 59 60 60 59 58 57 55 50 47 49 54 57 59 61 61 60 57 53 49 44 42 43 44 42 39 34 24 22 22 28 38 43 58 66 60
20 15 17 30 33 28 29 30 31 27 19 17 14 11 11 9 10 9 11 19 38 69 75 66 85 97 94 98 101 100 101 98 92 96 99 92 87 85 83 81 77 73 71 68 65 63 66 67 64 64 60 58 61 61 64 64 64 67 67 65 65 62 59 59 57 55 55 55 53 49 49 54 61 65 67 67 65 64 62 57 50 44 45 49 50 47 43 40 32 22 18 22 36 42 50 66 66
22 21 27 34 33 30 30 30 27 23 19 16 14 10 8 9 9 9 23 40 51 68 65 65 89 91 91 99 100 101 100 101 96 95 97 90 87 85 82 79 76 73 69 68 65 64 65 60 61 67 64 62 61 57 55 53 56 62 63 63 62 60 58 56 55 53 53 53 51 49 51 59 66 69 71 72 70 67 65 61 53 47 47 51 50 48 44 45 41 28 19 18 33 40 41 60 72
24 28 29 30 33 32 27 26 25 27 24 16 13 8 8 8 7 11 24 39 50 58 51 56 75 80 94 99 98 102 99 101 99 98 96 89 89 85 83 78 74 73 66 62 60 63 65 59 63 67 64 62 58 56 54 51 54 59 57 58 57 56 56 55 53 52 53 53 52 52 55 61 66 69 72 73 71 70 68 64 58 51 47 48 47 46 46 51 49 38 27 18 29 40 34 47 70
22 23 24 24 30 29 23 23 22 23 19 14 12 7 8 7 7 12 25 47 54 53 54 61 66 74 96 101 100 102 99 102 99 98 96 91 90 85 83 77 73 71 63 59 55 60 67 63 62 63 64 64 59 59 58 51 52 54 52 53 54 54 57 56 54 54 55 55 55 56 58 60 64 68 71 71 70 69 70 68 61 55 51 50 46 45 50 54 52 43 34 23 27 39 32 35 61
17 16 24 24 25 24 19 21 17 16 15 13 11 7 9 7 9 12 27 59 70 66 68 67 57 64 88 93 95 100 100 101 99 98 97 94 91 87 83 76 74 68 64 64 58 58 63 63 62 61 66 68 65 64 60 52 50 51 50 52 54 57 59 56 56 57 57 57 57 57 57 58 61 65 67 67 66 64 67 69 63 58 55 53 46 43 49 52 52 48 40 30 28 39 34 30 50
19 17 23 22 23 24 19 19 16 16 17 14 9 8 9 7 16 27 32 49 68 70 66 66 56 55 75 83 84 96 101 100 100 98 97 96 92 88 81 76 75 67 66 67 64 62 63 68 69 66 64 63 63 61 56 52 51 51 52 56 59 61 60 57 58 59 59 58 57 56 55 56 58 60 61 61 62 61 62 65 63 59 56 53 49 45 44 44 53 56 48 36 32 40 37 31 41
19 19 23 23 26 25 24 22 16 17 17 13 10 8 10 9 16 36 45 52 68 70 69 77 66 57 75 87 90 97 102 100 98 97 96 95 93 87 79 77 75 68 68 65 63 67 71 74 73 69 61 58 59 57 54 52 56 58 59 65 67 63 60 60 61 60 60 60 60 60 59 57 57 58 58 59 60 60 61 62 61 59 56 54 52 49 43 39 47 54 52 42 35 41 40 35 38
17 26 29 25 26 24 26 22 13 14 13 11 11 8 10 9 8 19 40 60 76 79 86 91 80 77 86 90 98 101 100 100 95 91 92 93 93 88 79 77 72 65 65 62 63 70 75 74 70 68 62 62 62 58 55 53 59 62 60 66 68 64 61 63 63 64 64 64 65 65 64 62 60 60 60 60 61 61 61 60 61 59 56 55 55 52 45 41 44 47 52 47 36 39 43 38 39
18 28 28 24 26 22 19 16 12 12 11 11 10 9 8 8 7 6 27 60 83 93 98 99 95 96 96 96 101 101 100 100 95 91 92 93 93 87 80 76 71 65 63 62 65 70 76 74 70 68 64 65 64 59 56 54 56 58 58 61 63 63 63 65 66 67 67 67 68 68 69 67 66 66 64 65 65 64 63 61 61 58 53 51 54 51 45 45 48 49 51 49 39 38 45 39 42
16 21 22 22 24 21 15 12 12 10 10 11 9 9 8 7 8 7 27 57 80 99 100 96 102 101 98 101 100 99 101 100 97 97 94 91 89 85 77 73 69 64 61 60 62 67 75 75 70 68 66 64 63 61 60 59 59 58 60 61 62 64 65 66 67 69 69 69 70 70 71 70 72 72 71 72 71 68 66 65 62 57 50 45 46 47 47 49 51 53 54 52 41 36 47 43 43
14 16 21 21 18 16 12 10 10 10 10 10 9 9 9 7 6 11 29 40 51 81 88 78 90 101 100 101 100 100 101 100 100 98 90 84 85 82 74 70 66 63 62 61 62 64 69 71 69 68 67 66 65 65 65 64 64 63 63 64 65 65 66 68 69 69 70 71 71 72 73 73 76 75 74 76 77 73 70 70 65 58 52 44 41 47 54 56 56 56 58 56 42 35 48 51 44
14 15 17 15 13 13 11 9 9 10 9 9 10 9 7 6 7 13 20 17 23 51 67 58 64 82 90 96 100 101 100 101 101 95 87 80 80 79 74 71 69 69 67 64 64 64 65 68 70 69 69 68 68 68 68 68 67 67 67 67 68 67 69 70 70 70 71 73 73 74 75 75 78 78 77 78 81 80 75 74 69 65 62 53 47 56 66 66 63 58 60 58 43 38 47 55 50
16 17 13 11 12 12 10 10 9 9 9 9 9 7 8 5 9 29 38 28 25 38 52 58 66 77 86 94 98 99 100 100 97 90 81 76 75 74 72 72 72 71 67 66 68 69 68 70 71 71 71 70 70 70 70 71 70 70 70 70 70 70 70 71 71 72 72 73 75 78 79 78 80 82 81 80 82 83 80 76 73 74 76 69 61 72 77 71 68 60 59 57 45 43 45 52 55
16 17 13 11 10 11 10 9 8 9 9 9 8 6 9 4 8 47 75 65 53 54 56 70 90 95 96 98 95 93 94 95 92 84 75 71 69 67 69 70 70 68 66 69 71 69 69 71 74 74 74 74 74 75 75 76 76 75 74 73 75 74 73 74 74 75 75 76 77 80 83 84 83 85 84 81 82 84 82 78 77 79 82 79 74 81 80 73 75 65 59 57 49 50 47 48 53
14 14 12 11 9 9 8 8 8 9 9 8 9 8 6 10 28 70 98 90 77 71 68 83 100 100 100 98 92 89 89 90 85 80 77 73 70 69 71 71 71 69 67 69 70 70 73 76 78 77 79 80 80 81 82 83 83 83 81 79 80 79 78 79 80 81 81 80 81 83 87 89 88 88 87 84 84 84 84 81 80 81 81 80 78 81 81 76 79 72 63 57 52 57 57 51 49
12 11 10 9 9 9 7 8 8 7 10 7 8 10 5 17 54 87 100 99 89 84 87 96 101 100 100 95 88 87 85 83 78 76 77 76 76 73 73 74 69 63 63 66 69 73 79 81 80 80 82 83 84 85 84 85 86 84 83 84 84 84 83 85 87 87 87 87 88 89 92 94 93 93 92 88 86 86 87 85 83 82 78 78 78 80 82 81 81 80 74 63 54 57 62 60 55
11 11 11 10 11 9 8 9 7 8 8 7 8 9 8 18 58 92 98 101 96 93 100 99 100 101 94 86 85 85 78 76 75 74 74 75 76 71 74 74 60 55 60 62 65 72 81 84 82 81 82 84 84 83 82 82 81 79 81 85 87 87 87 88 88 85 86 88 90 94 96 96 95 96 95 91 89 87 86 87 86 81 75 75 80 83 84 84 80 80 82 77 67 61 64 68 66
11 13 13 13 13 10 10 9 8 10 6 8 8 7 10 12 50 95 100 100 96 93 102 99 101 100 86 81 84 84 80 77 77 75 72 68 64 61 62 62 54 55 61 64 71 80 85 85 83 81 80 79 78 77 78 77 77 76 77 82 86 87 88 87 83 79 78 80 86 95 91 90 95 92 90 90 89 88 86 88 84 76 74 76 82 86 84 82 78 78 82 84 82 78 80 81 75
12 13 15 16 14 10 10 9 8 9 7 8 6 9 13 5 40 94 100 99 100 96 101 100 100 98 89 88 88 86 85 81 80 76 71 66 59 52 46 51 59 63 66 74 83 87 86 82 79 79 76 73 71 71 72 72 71 69 69 76 81 83 83 81 78 76 77 77 82 89 82 82 91 87 86 88 86 88 88 86 77 70 75 79 83 85 83 82 79 79 82 83 84 86 89 91 83
13 13 14 16 17 15 10 9 9 7 9 7 5 16 18 19 58 98 100 99 101 99 101 100 100 101 97 97 92 88 86 82 79 76 73 69 60 50 45 55 69 71 73 81 86 83 77 72 72 73 71 67 65 62 63 63 62 61 64 73 77 78 78 78 79 78 78 77 79 85 80 78 83 84 87 86 85 88 88 82 73 69 76 81 84 84 84 84 80 79 81 81 82 83 86 89 86
16 14 20 22 17 20 14 10 12 8 10 6 8 15 15 46 90 101 99 100 100 100 101 100 100 100 100 100 94 87 86 82 78 77 76 72 62 55 54 60 65 66 67 74 80 77 67 63 66 65 61 58 56 54 56 57 56 58 64 70 71 72 76 77 78 76 75 75 78 85 86 82 84 88 90 89 89 87 84 81 74 72 77 82 87 86 86 87 82 80 79 78 79 78 80 83 83
27 15 31 39 21 20 18 12 14 9 9 7 9 13 23 71 104 97 100 101 98 100 99 101 101 100 101 100 95 88 85 83 80 77 77 76 68 60 60 58 56 60 63 66 74 75 65 59 60 57 50 47 46 47 52 54 52 55 60 65 66 68 72 72 72 74 75 77 81 88 92 91 87 87 87 89 94 90 84 82 77 75 78 82 86 84 86 86 82 82 78 75 76 74 73 76 78
47 27 29 39 25 21 19 13 14 10 9 9 9 13 26 71 99 96 102 101 99 102 100 100 100 100 101 100 98 92 86 85 83 75 74 78 70 62 63 56 51 54 54 54 62 69 64 58 56 51 44 39 40 43 47 49 49 53 59 62 67 71 71 69 67 70 74 79 85 89 93 93 87 84 81 81 91 95 89 84 80 80 80 81 82 80 83 84 83 84 81 76 75 73 72 72 75
52 47 37 37 30 23 21 18 15 11 10 9 10 13 14 47 88 97 98 100 100 101 100 101 101 100 101 100 98 93 86 83 78 70 72 74 66 64 62 54 50 46 39 45 59 64 59 56 52 47 45 44 45 48 49 48 48 53 59 65 74 76 72 71 69 70 74 80 85 89 92 88 83 85 80 76 86 95 93 88 85 86 85 84 83 80 79 80 83 87 88 84 77 76 75 73 74
36 40 38 38 38 28 23 23 16 13 14 11 12 14 13 37 81 95 93 100 101 100 100 98 100 101 100 101 98 89 82 76 70 67 72 71 63 65 64 58 56 43 35 49 64 63 59 57 49 45 49 49 50 55 53 44 41 46 52 61 71 71 67 68 68 68 74 79 83 87 89 84 81 85 84 81 86 92 93 91 90 91 88 86 83 79 75 77 84 87 89 89 82 81 82 79 79
27 28 32 35 38 30 25 22 17 17 15 15 14 12 21 48 79 91 90 96 98 99 101 98 100 102 99 101 98 88 80 73 65 64 68 66 62 65 65 63 59 48 45 55 62 64 62 56 49 46 47 48 48 49 43 30 28 36 41 51 63 64 63 65 64 63 68 75 81 86 88 84 83 87 86 85 89 91 89 86 87 90 90 87 83 80 78 78 81 84 88 92 86 84 85 85 85
26 27 34 35 35 29 22 18 18 20 15 16 20 15 31 65 84 88 86 88 95 98 100 101 100 101 100 101 99 90 83 74 61 58 63 64 65 67 65 62 57 52 54 55 56 62 62 54 49 45 45 47 41 32 26 21 21 26 30 42 55 59 61 65 63 58 61 71 79 85 89 87 86 90 91 89 91 89 84 81 83 86 88 87 83 83 84 81 78 81 88 93 90 87 87 88 89
31 33 35 32 34 28 19 20 23 26 22 20 26 20 28 60 76 80 79 80 91 98 99 101 100 101 101 100 98 92 86 75 62 59 61 63 67 66 64 61 56 53 54 52 53 58 58 52 50 47 44 42 34 24 20 19 23 29 33 39 46 52 60 67 64 57 60 69 77 82 84 86 89 92 93 92 91 89 84 83 85 85 86 84 81 84 85 83 80 82 89 94 92 90 90 90 89
36 37 34 29 32 26 24 34 34 32 30 25 27 21 24 49 60 65 73 73 82 93 96 99 99 100 100 97 96 92 86 77 67 64 62 62 66 65 64 62 56 54 53 53 54 55 54 52 51 47 37 32 29 24 20 21 30 39 41 42 45 51 59 65 67 64 62 64 70 82 87 86 86 86 87 88 86 84 82 80 82 81 81 82 83 85 85 83 84 87 93 96 93 90 91 92 91
40 31 23 27 30 23 24 37 39 38 37 31 31 31 37 49 44 44 57 60 69 86 92 95 96 95 94 92 88 84 80 73 66 66 66 66 67 66 66 62 56 56 56 56 56 53 53 52 45 34 25 22 23 22 20 26 36 39 40 47 52 55 58 62 67 69 65 59 56 66 80 87 86 83 84 84 80 76 76 76 78 76 76 80 82 84 85 83 86 89 91 95 94 91 92 93 93
56 44 26 30 31 24 23 33 45 51 48 42 44 42 40 44 36 34 44 52 66 82 88 89 91 91 89 88 85 77 72 67 62 63 65 66 66 66 66 61 58 58 57 56 55 53 53 49 33 19 17 18 20 19 18 25 35 35 37 47 52 53 55 52 54 61 60 58 50 41 44 55 65 69 68 65 59 56 60 65 65 61 65 78 81 79 81 80 84 88 88 91 93 92 92 92 92
51 50 40 35 29 28 29 39 52 52 41 37 41 36 36 48 46 33 37 58 75 79 82 85 87 88 86 85 85 78 74 70 63 62 64 64 66 70 68 62 60 59 57 56 55 53 53 45 23 13 16 17 17 17 19 25 33 34 31 33 37 39 42 43 51 62 62 60 55 38 25 26 38 47 46 41 34 32 40 47 50 50 59 76 78 76 79 79 79 81 82 84 86 87 88 87 86
34 42 47 40 32 30 30 38 44 42 37 38 45 43 45 55 47 30 37 66 81 76 76 81 81 84 83 80 81 77 75 75 68 63 64 65 69 72 68 64 61 59 58 57 55 54 54 40 18 12 16 16 17 18 23 30 33 34 31 29 31 30 33 39 47 57 61 59 49 34 27 28 37 43 43 44 43 44 46 46 58 71 77 80 78 76 78 75 74 75 75 78 80 82 83 81 80
30 44 47 37 31 27 34 39 36 41 40 41 61 56 41 48 47 36 44 63 77 77 74 75 75 77 79 78 77 73 69 70 69 65 62 65 70 70 66 65 63 60 59 58 56 54 48 32 15 13 16 15 17 20 26 34 34 36 37 38 35 29 35 39 29 28 40 44 37 31 32 39 47 51 52 54 58 65 61 54 68 88 90 84 82 80 77 74 74 76 77 77 76 76 77 77 76
34 48 42 31 29 33 48 46 39 53 40 31 64 57 30 52 65 50 43 46 57 65 67 69 69 69 72 76 75 71 68 65 65 62 58 63 69 69 65 64 63 62 60 57 54 49 40 26 16 15 15 15 19 25 34 43 47 48 48 45 35 29 39 41 22 15 21 24 25 28 35 45 54 60 62 60 61 69 67 59 65 79 84 81 79 77 76 76 73 75 76 72 70 70 71 73 75
34 41 35 32 40 50 60 52 46 60 46 32 61 55 30 55 76 61 40 28 34 48 54 56 59 63 66 71 74 72 68 64 61 59 58 63 70 69 65 63 62 61 58 55 53 43 30 22 19 17 18 22 32 43 51 55 58 58 57 52 41 33 37 33 19 16 17 16 18 19 25 36 48 57 60 59 65 72 68 59 58 65 72 70 69 71 74 72 69 68 64 59 60 60 60 67 72
27 34 31 27 43 58 70 74 58 50 49 47 63 61 39 48 68 65 43 25 29 42 45 42 47 58 62 65 71 70 65 61 59 61 65 70 72 70 66 63 61 59 56 56 53 39 27 28 29 24 22 26 35 45 54 60 63 61 60 58 50 39 31 22 16 16 16 15 16 15 17 23 32 44 49 54 68 74 67 61 58 58 55 51 54 59 55 44 39 38 35 40 50 52 57 67 69
28 39 37 27 41 53 61 73 56 45 56 59 69 64 39 41 54 52 45 41 42 43 41 40 43 55 62 65 68 67 64 61 60 65 71 75 73 69 67 63 61 60 57 57 54 44 39 39 32 26 26 24 24 29 37 51 60 63 62 61 56 41 24 16 16 17 16 15 15 15 15 17 21 27 35 48 66 73 68 59 48 38 31 29 33 34 27 18 14 15 19 31 42 48 56 58 53
30 38 46 39 43 45 50 61 54 54 57 52 66 58 36 49 54 41 44 46 46 47 42 41 48 56 60 62 65 65 65 64 63 67 72 73 71 68 66 63 61 60 58 57 56 53 51 42 30 27 28 24 24 24 25 40 58 64 62 61 59 43 23 16 16 17 16 15 14 14 14 17 18 20 24 36 54 63 57 42 27 21 20 21 23 22 20 19 17 17 19 25 30 32 35 32 26
21 29 43 44 47 45 51 64 57 55 52 50 63 51 39 55 50 41 49 47 50 55 48 46 53 60 63 64 66 66 67 66 64 66 69 70 69 65 63 63 61 59 58 57 57 59 57 51 46 43 38 34 31 25 27 46 61 62 62 65 61 44 25 18 17 17 17 15 14 14 15 17 19 19 20 26 38 43 36 25 20 21 22 22 23 23 23 23 23 23 22 22 24 23 22 22 22
22 29 31 35 52 52 49 54 49 50 54 53 49 41 47 52 38 44 53 52 63 66 60 60 60 63 66 65 67 66 65 65 64 65 67 67 67 66 64 63 61 59 59 58 59 63 62 59 60 57 55 53 45 40 49 61 61 59 59 55 49 40 28 21 18 17 16 14 15 16 17 19 20 20 20 21 25 26 22 22 23 23 22 23 23 23 23 23 23 24 23 23 23 23 23 22 23
25 30 24 25 41 48 47 48 57 65 56 49 43 43 61 56 37 47 54 56 69 70 67 69 66 66 66 66 69 69 66 66 65 64 63 64 64 64 64 63 61 60 59 57 60 66 67 66 67 66 69 71 66 67 74 69 62 62 55 41 36 36 29 23 19 18 18 15 15 17 18 21 22 21 21 20 20 21 21 22 22 22 22 23 23 23 23 22 22 22 21 23 22 21 22 21 20
28 24 24 30 31 43 53 47 63 72 52 52 52 42 59 63 43 45 51 58 68 70 72 73 68 64 62 64 65 61 62 67 70 66 61 62 62 61 63 62 60 60 59 58 61 68 71 70 71 73 82 86 79 75 73 61 52 50 44 37 36 34 30 29 23 18 19 17 17 20 21 22 23 22 22 22 21 20 20 20 20 21 21 21 22 22 21 20 20 21 20 20 19 18 18 18 17
27 21 26 33 28 42 59 54 59 59 47 59 58 40 53 65 58 52 46 54 70 75 77 77 72 67 67 70 65 58 60 63 67 67 62 62 61 60 61 61 60 60 58 57 59 65 73 77 80 84 94 96 80 69 67 58 46 43 46 44 37 32 38 44 37 27 23 19 19 21 23 23 24 24 23 22 22 22 21 21 20 20 19 19 20 19 19 20 19 20 20 20 21 21 21 21 20
19 22 23 28 34 41 46 49 54 50 49 57 53 51 57 56 64 61 42 50 72 74 74 78 78 77 76 72 63 62 61 56 58 60 59 60 58 59 61 60 60 57 55 56 56 60 69 79 87 92 99 99 86 76 75 68 57 56 60 52 40 42 50 49 41 36 30 23 21 21 22 24 24 24 25 23 23 23 22 22 21 21 20 19 19 19 19 21 21 22 24 24 24 25 25 25 25
20 26 26 31 49 52 40 44 51 49 55 57 50 55 59 57 66 61 45 57 71 69 73 79 77 78 77 68 62 64 61 58 62 61 60 62 60 62 63 60 60 59 59 61 62 66 70 75 81 84 88 91 90 88 85 79 72 68 64 52 46 53 59 50 41 41 38 31 29 26 23 25 25 24 25 24 24 24 23 23 23 22 23 22 22 22 21 22 23 23 24 25 25 26 26 26 27
21 28 35 34 39 41 35 39 47 50 59 67 60 55 61 71 73 61 57 65 68 70 79 81 76 74 75 72 69 70 68 67 69 66 65 66 63 62 61 60 62 64 66 68 68 72 74 75 76 77 80 85 88 90 90 90 85 73 62 53 52 58 62 58 52 53 51 41 38 39 34 34 34 28 25 24 24 24 24 24 24 24 25 25 24 24 25 25 25 25 25 25 26 27 27 28 28
21 27 34 39 40 38 37 38 47 58 64 67 63 57 62 71 68 65 70 69 66 72 78 79 75 70 72 74 72 74 74 72 71 68 66 65 64 63 61 62 64 65 67 67 69 73 73 73 74 75 80 85 89 92 95 97 91 77 65 56 54 57 60 61 57 58 58 42 34 44 49 49 47 41 37 32 28 28 27 26 27 27 27 27 28 28 28 28 27 27 27 27 27 28 28 29 29
Wind_Speed
6 5 5 7 10 10 7 5 2 2 2 1 3 1 4 5 2 3 6 4 0 3 3 8 10 12 11 9 12 11 13 5 2 3 4 8 21 30 30 29 29 30 28 25 23 21 19 18 19 19 22 24 25 24 23 22 21 21 21 21 21 21 21 21 21 20 19 18 18 17 16 16 16 15 15 15 15 15 15 14 13 11 9 7 6 6 7 9 10 11 12 11 12 13 13 13 14
7 6 7 10 10 7 5 3 1 2 3 2 4 3 4 4 3 5 6 6 4 6 13 22 21 18 15 14 12 9 14 11 7 11 13 20 28 29 28 29 31 31 31 30 27 24 20 18 18 18 21 23 24 24 23 22 21 21 21 21 21 20 21 20 20 19 19 18 17 16 15 15 14 14 14 14 14 14 14 13 13 12 10 8 6 4 6 7 9 11 12 12 12 13 14 14 15
8 7 8 10 8 5 4 3 1 1 2 3 4 3 3 4 6 7 4 6 7 16 17 18 16 12 9 9 8 6 6 8 13 18 19 23 27 27 26 27 30 30 31 32 31 28 24 21 20 19 20 22 23 23 22 21 20 20 20 21 21 20 20 20 19 18 17 16 16 15 14 13 12 12 12 12 12 12 12 12 12 11 9 8 4 4 8 7 8 11 11 11 13 14 14 15 16
7 7 8 8 6 4 4 2 2 4 2 4 3 5 4 5 7 5 4 7 10 16 9 7 8 7 8 9 8 9 6 7 14 19 21 23 25 27 25 28 31 30 30 30 30 29 27 24 22 20 20 22 23 23 22 21 20 19 20 20 20 20 20 19 17 16 15 15 15 14 13 12 11 11 11 11 11 10 10 10 9 9 8 6 3 5 9 7 7 12 11 10 12 14 15 16 17
5 7 7 6 4 2 2 2 2 3 4 4 1 5 5 7 5 7 8 8 11 16 6 4 5 7 12 10 6 7 8 10 14 18 24 24 24 26 26 30 32 31 31 29 29 28 27 24 22 21 20 21 23 23 21 20 19 18 19 19 19 19 18 17 16 15 15 15 14 13 12 11 11 11 10 10 10 9 9 8 7 7 6 5 3 4 7 6 6 9 10 10 12 14 15 16 17
6 8 6 3 2 1 2 1 2 3 5 4 2 6 6 8 6 10 12 8 6 14 9 2 9 11 10 10 9 7 9 10 14 20 25 24 23 25 27 32 32 31 31 30 29 27 26 24 21 19 19 20 22 24 22 20 19 18 18 18 18 18 17 16 16 15 15 15 14 12 11 11 11 12 11 10 9 9 8 7 7 6 6 5 5 5 5 4 4 6 8 9 12 15 16 17 16
6 7 4 3 2 2 3 2 4 5 5 4 4 5 7 11 10 10 12 7 1 7 6 6 18 16 6 4 8 6 8 10 15 20 22 23 25 26 28 32 32 32 32 31 29 26 26 25 23 20 19 19 21 24 23 21 19 18 17 17 17 17 17 16 16 16 16 15 14 13 13 13 13 12 11 10 9 9 8 7 7 6 6 6 5 5 4 3 4 5 7 9 11 16 18 18 17
6 5 3 3 1 2 2 2 4 4 4 4 4 7 10 16 15 9 9 4 2 3 10 14 17 12 4 4 6 6 10 11 12 17 21 23 25 28 29 31 32 32 32 31 28 25 24 23 23 21 19 18 20 23 22 21 19 18 17 17 17 17 16 16 16 16 16 16 15 15 15 14 13 12 11 11 10 9 8 7 7 6 6 6 5 5 5 4 3 4 6 8 10 16 19 19 18
6 4 3 3 2 1 1 2 5 3 4 6 5 10 15 22 19 10 8 4 4 4 9 7 4 7 8 11 10 10 12 11 12 18 21 23 26 28 29 31 32 33 32 29 27 24 22 21 20 19 18 18 18 20 21 21 19 17 17 16 16 16 16 16 17 17 17 17 17 16 16 14 13 12 11 10 9 8 8 7 7 6 6 6 6 6 6 5 4 4 4 7 11 16 20 20 19
5 4 2 2 2 1 3 3 4 3 5 5 7 15 20 23 19 12 11 5 5 7 8 6 8 12 13 10 9 12 15 14 16 20 22 24 26 28 30 32 32 33 33 30 27 24 21 18 17 17 17 18 18 18 19 20 18 17 16 16 16 16 16 16 17 17 17 17 17 16 15 14 12 11 10 10 9 7 7 7 7 6 6 6 7 7 6 6 5 4 4 7 11 15 20 21 20
3 2 3 3 3 1 4 3 3 4 6 5 9 18 20 21 15 10 9 4 7 11 13 13 15 17 14 7 6 12 19 17 17 21 23 25 26 28 31 32 32 33 32 29 27 25 21 18 16 15 17 17 17 18 19 18 18 17 16 16 16 16 16 16 16 16 17 17 16 15 14 12 11 10 10 9 8 7 7 7 6 6 6 6 6 6 6 6 5 5 4 6 11 15 19 21 20
2 0 4 3 2 3 4 2 4 5 7 5 7 14 22 20 10 5 7 6 10 12 8 8 14 19 11 4 7 13 21 20 17 19 22 25 27 29 31 31 31 31 29 26 24 23 22 21 18 16 16 17 17 17 18 18 18 17 17 16 16 15 15 15 15 15 15 15 15 14 13 11 10 9 8 8 8 7 7 6 6 6 6 6 5 5 5 5 5 5 4 5 9 14 18 21 21
3 2 5 2 3 3 2 1 4 5 5 4 5 14 25 16 4 4 7 7 8 8 4 12 23 19 8 4 11 16 21 21 17 17 21 26 27 29 30 30 30 28 26 24 24 23 22 22 20 17 17 17 17 17 17 18 17 17 17 16 16 15 15 15 14 14 13 13 13 12 11 10 9 8 7 7 7 7 7 6 6 6 6 6 5 4 4 5 5 5 4 5 9 13 17 21 22
3 3 4 1 1 2 2 1 3 2 4 5 4 17 24 12 0 5 10 9 5 5 11 20 26 15 8 7 9 18 22 21 19 18 23 26 28 29 29 29 29 26 24 25 25 24 23 23 22 21 19 18 18 18 18 18 18 17 17 17 16 15 15 14 13 13 12 12 11 11 9 9 7 7 7 7 6 6 6 6 5 5 6 6 5 4 3 3 4 5 5 5 8 12 15 20 24
3 2 3 2 1 2 2 2 2 2 4 5 9 19 20 12 3 3 9 9 6 12 18 21 19 8 12 14 11 24 26 22 22 21 25 27 30 29 29 30 28 26 26 27 26 24 24 24 23 23 21 20 20 19 19 19 18 18 18 17 16 16 15 14 13 12 12 11 11 10 9 8 7 7 6 6 6 5 5 5 5 5 5 5 4 3 3 2 3 4 5 5 7 11 13 18 24
3 1 3 1 2 2 2 2 3 3 4 6 12 18 12 11 11 9 7 13 14 14 13 12 7 3 18 21 20 32 28 25 25 23 26 28 31 30 30 31 28 28 28 29 28 26 26 26 25 24 24 23 21 20 20 19 19 19 18 17 16 16 15 14 14 13 12 11 10 9 8 8 7 7 6 6 5 5 5 5 4 4 4 4 4 3 2 2 2 3 4 5 7 10 12 16 23
4 1 3 1 3 3 3 3 3 3 5 8 12 16 8 7 13 14 11 20 19 12 8 6 4 6 20 18 23 34 27 28 28 26 28 29 32 32 33 32 30 29 29 29 29 29 27 25 25 24 24 23 22 21 20 19 18 18 17 17 16 16 15 14 14 13 12 11 10 9 8 8 7 7 6 5 5 5 5 4 4 4 4 3 3 3 2 2 2 2 3 5 7 9 11 15 21
4 2 2 3 3 4 4 5 3 3 4 7 11 12 6 6 8 7 7 14 17 16 14 12 7 11 19 18 28 33 27 29 29 29 30 29 32 33 35 34 31 30 30 30 29 29 27 25 25 24 23 21 22 21 21 20 19 18 17 16 16 15 15 14 13 12 11 10 10 9 8 8 7 7 6 6 5 5 4 4 4 4 3 3 3 3 2 2 2 2 3 5 7 9 11 14 19
6 3 2 5 4 5 5 5 3 3 6 9 12 12 7 6 7 5 1 6 11 14 13 15 20 19 21 27 33 31 29 30 30 33 31 29 32 33 36 35 32 30 32 31 28 29 26 25 25 23 22 20 21 20 20 19 17 17 16 15 15 15 14 13 12 11 10 9 9 8 8 7 7 6 6 6 5 5 5 5 5 4 3 3 3 3 3 3 3 3 4 5 7 10 12 13 19
6 4 2 6 5 5 7 8 10 12 11 8 12 14 11 11 7 5 3 5 5 7 8 13 22 24 28 33 33 31 32 30 31 33 29 29 31 33 36 35 33 31 32 30 27 27 24 23 23 22 22 21 20 19 18 16 16 16 15 14 14 13 13 12 11 10 9 9 8 7 7 7 7 6 6 7 6 6 6 6 6 4 3 3 4 4 4 4 4 4 4 5 7 11 13 13 18
4 5 4 5 4 3 11 14 15 17 12 8 11 12 13 13 5 4 6 6 1 6 13 15 23 31 35 35 34 33 33 32 32 30 28 29 31 34 35 33 33 31 31 28 26 26 23 22 22 22 21 21 20 18 17 16 16 15 15 14 13 12 11 11 10 10 9 9 8 8 7 7 7 6 6 7 7 7 7 7 5 3 3 3 4 4 4 4 4 5 5 5 8 11 13 13 17
2 4 7 7 4 3 13 17 15 14 10 9 8 6 8 10 5 4 6 5 3 8 15 20 26 33 37 38 37 35 34 34 32 30 29 29 31 34 34 33 32 30 29 26 26 25 23 23 22 22 21 21 19 17 16 15 15 15 14 13 12 11 11 10 10 10 10 9 9 8 8 8 8 7 7 7 7 8 8 7 5 4 4 3 4 4 4 5 5 6 6 7 9 12 14 13 16
3 5 6 11 9 6 15 19 17 14 8 8 5 5 7 7 6 3 4 3 3 8 17 21 25 32 37 38 38 37 36 34 33 31 29 29 30 32 33 33 32 30 28 26 25 24 23 23 22 22 22 21 19 17 16 14 14 13 13 12 11 11 11 11 10 10 10 9 9 9 8 8 8 8 7 7 7 8 8 7 6 5 4 4 5 5 5 6 5 6 7 9 11 13 14 14 16
6 5 4 12 14 11 20 24 22 19 12 14 10 6 8 5 4 4 6 3 6 10 18 24 26 32 36 37 37 36 35 34 32 30 28 27 27 29 31 31 30 28 27 25 24 23 23 24 24 23 22 20 18 17 15 14 13 13 13 12 11 11 11 11 10 10 10 9 10 10 9 9 9 9 8 7 7 8 8 8 7 6 6 6 6 5 7 7 5 6 7 10 13 14 14 15 16
5 6 6 9 13 15 23 25 24 22 17 20 13 7 12 7 2 5 6 8 12 17 24 28 30 34 35 36 36 35 34 33 31 29 27 26 26 28 30 29 29 28 27 26 25 24 25 25 25 23 21 19 17 16 14 13 12 12 13 12 12 12 13 12 11 11 11 11 12 12 11 10 10 10 9 8 8 8 8 8 6 6 6 7 7 7 7 7 6 7 8 10 14 14 12 13 15
5 9 8 7 12 18 22 20 22 22 16 14 7 7 13 7 9 6 6 14 18 23 28 30 33 35 35 35 36 35 35 34 32 29 27 27 28 29 30 30 29 27 27 26 26 26 25 24 23 21 19 17 15 14 13 12 12 12 12 13 13 13 13 12 12 11 11 12 13 13 12 12 11 11 10 9 9 9 9 9 7 6 7 7 8 8 9 9 8 8 8 10 13 14 12 11 13
4 7 8 10 15 20 18 16 20 17 12 11 8 7 10 10 9 2 8 19 23 27 28 29 34 36 36 36 37 36 35 34 31 29 29 29 29 28 29 29 27 26 27 27 26 25 24 22 20 18 15 14 13 12 12 12 12 11 11 12 13 13 13 12 11 11 11 12 13 13 13 13 13 13 12 10 10 10 9 9 9 8 8 8 9 10 11 11 10 10 9 9 11 13 11 10 12
9 9 7 10 13 14 14 12 13 8 8 11 10 4 3 6 5 8 18 23 25 29 29 30 33 35 37 37 37 37 35 33 31 30 32 31 28 27 27 27 26 26 27 27 25 24 22 20 18 15 13 12 11 10 11 10 10 10 11 12 13 13 12 11 10 10 11 12 13 14 14 14 14 14 12 11 10 10 9 9 9 9 10 11 11 12 13 12 11 11 10 10 11 12 11 11 12
10 6 3 8 8 7 10 9 8 6 5 8 7 1 4 2 3 17 26 26 26 29 31 30 31 33 35 36 36 36 34 32 31 32 33 30 28 27 26 25 26 26 27 25 23 22 21 18 15 14 12 11 10 9 9 9 10 10 10 11 12 11 11 10 9 9 10 12 14 14 14 14 15 14 12 12 11 9 10 10 10 10 11 12 12 11 12 11 11 11 10 10 10 11 10 10 12
7 1 1 5 7 5 7 4 5 5 5 8 6 2 6 5 6 24 29 28 26 25 28 29 29 32 33 34 35 35 34 32 31 32 31 28 27 26 26 26 25 24 23 23 22 20 18 16 15 14 13 12 10 9 9 9 9 9 9 10 10 9 9 9 9 9 10 11 13 14 14 15 15 14 12 11 11 10 10 11 11 11 11 12 12 11 11 11 11 11 10 10 10 11 10 10 11
3 2 2 2 2 5 7 3 1 1 4 9 8 3 6 3 11 26 31 32 31 26 26 28 29 31 32 34 35 35 33 32 30 30 29 27 26 26 27 27 25 22 21 21 20 18 17 16 15 14 13 11 10 8 7 6 6 6 8 8 8 8 8 8 9 9 10 11 12 13 14 15 15 14 12 11 10 11 10 11 11 11 11 13 12 10 10 11 11 11 10 10 11 12 12 11 10
3 2 2 3 1 4 9 6 4 4 5 7 9 3 3 5 14 26 31 32 31 27 25 27 30 32 32 32 33 34 33 31 29 28 27 26 26 26 28 27 23 20 19 18 16 16 16 15 14 13 11 9 8 6 5 4 4 5 6 6 6 7 7 7 8 9 10 11 12 12 13 14 14 12 11 10 10 11 10 11 12 11 11 13 12 10 10 12 12 11 10 10 11 13 12 11 11
3 1 2 4 1 3 7 5 6 9 5 3 5 4 2 5 14 25 29 30 28 26 24 26 30 32 31 31 32 34 33 31 30 28 27 26 25 25 27 26 23 19 18 16 15 16 17 15 14 12 9 7 6 6 5 4 5 5 6 6 6 7 7 7 8 9 10 11 12 12 13 12 12 11 11 11 10 11 11 11 12 11 12 12 12 11 11 12 13 12 11 10 11 12 12 11 11
4 2 0 3 2 2 4 6 6 6 6 4 4 5 3 4 14 22 26 27 24 22 24 26 29 31 30 29 31 32 33 32 30 29 27 27 24 25 29 28 25 23 21 21 21 19 18 17 14 11 9 8 7 7 5 5 6 6 6 6 6 6 7 7 8 9 10 10 10 11 12 11 10 11 11 11 11 11 12 12 13 13 12 13 13 12 11 12 13 13 13 12 11 10 9 10 10
3 1 2 3 3 2 4 5 4 2 3 5 4 4 2 4 12 18 21 23 21 23 29 30 29 29 27 27 28 30 33 31 29 28 28 27 25 26 30 29 27 24 23 26 25 22 21 18 14 12 11 10 9 8 7 7 6 6 7 7 7 7 6 7 8 8 9 9 9 10 10 10 10 10 10 10 10 11 12 13 13 14 14 14 14 12 11 11 14 15 15 14 12 10 9 9 10
5 3 3 4 5 4 5 7 5 3 4 4 6 4 3 7 10 12 17 20 18 20 23 24 25 24 24 25 28 30 33 31 28 28 28 27 27 28 30 28 26 24 24 27 26 25 24 20 16 13 12 11 10 10 9 8 7 7 9 9 8 7 7 7 7 7 8 8 8 8 9 10 9 9 9 9 9 10 12 12 12 13 14 14 13 12 11 12 14 16 17 16 14 12 11 11 11
4 2 3 5 5 5 6 6 6 1 2 3 3 5 5 9 10 10 17 17 13 13 12 16 22 24 25 26 28 31 32 31 30 30 29 29 29 28 28 27 25 24 25 27 26 25 24 20 17 15 14 13 12 12 11 9 8 6 7 9 9 8 7 6 6 6 7 7 7 8 9 9 9 8 8 9 9 10 11 11 11 12 13 14 14 14 13 14 15 16 19 19 16 15 14 13 13
3 3 4 4 4 6 6 5 7 3 4 4 0 8 6 9 10 9 14 13 10 14 15 17 23 24 26 28 29 30 31 31 31 31 31 31 30 29 28 27 25 25 26 26 25 25 24 21 17 16 15 15 13 13 12 10 8 6 5 7 8 7 6 5 5 5 6 6 6 7 8 9 9 9 9 9 8 9 10 10 9 8 9 11 13 14 15 16 17 16 19 21 18 16 15 14 13
2 2 3 2 3 4 7 5 7 5 5 2 1 9 4 3 6 7 13 13 14 23 27 28 30 28 28 30 29 30 30 31 33 33 33 32 31 29 29 27 25 26 25 24 25 24 23 21 17 17 16 15 15 14 12 11 10 9 6 6 6 6 5 5 5 5 5 5 5 7 8 8 9 10 10 8 7 8 9 8 6 4 5 7 9 12 14 16 16 16 19 21 18 17 16 14 12
2 3 2 3 4 1 3 5 7 6 3 2 4 7 1 3 0 5 10 9 9 21 27 27 31 31 32 33 33 34 34 34 35 34 34 32 30 29 29 28 27 27 26 25 25 23 22 20 17 17 16 16 17 15 14 13 12 10 8 6 6 5 6 6 6 6 6 6 6 7 8 9 10 10 10 9 8 7 8 7 6 4 4 5 8 9 10 12 13 14 16 18 17 16 15 13 12
3 4 4 3 4 3 4 4 6 6 5 3 6 6 4 3 2 5 7 4 1 12 18 17 23 26 26 29 31 35 37 37 37 37 37 34 31 31 30 29 29 28 27 26 24 22 20 19 18 18 18 19 19 17 16 15 14 12 10 9 8 7 8 7 7 7 7 7 6 7 8 9 10 10 10 11 10 8 8 7 6 6 6 6 7 7 6 7 8 10 12 12 13 13 12 12 12
4 4 7 7 5 4 4 4 4 5 5 4 5 5 3 5 1 5 4 2 2 9 12 14 19 21 21 26 29 32 34 34 34 36 37 36 32 30 30 32 31 30 28 25 23 21 20 20 20 21 21 21 21 19 17 16 15 13 9 7 7 7 7 7 7 7 8 8 8 6 6 7 8 9 9 9 9 7 6 5 4 6 7 7 6 4 4 4 6 7 9 10 12 12 12 12 12
2 5 7 7 6 1 4 2 4 3 1 3 4 5 2 6 4 5 3 4 6 7 8 9 15 19 21 26 29 30 32 32 32 32 34 35 32 30 31 34 34 33 30 26 24 22 22 23 23 23 24 23 22 21 18 16 15 12 8 5 4 4 4 5 6 8 10 10 9 7 5 5 6 7 7 6 6 5 4 1 2 5 6 5 5 3 3 3 3 4 6 7 9 10 11 10 10
3 5 6 7 5 2 2 3 4 2 2 3 5 4 3 3 5 6 2 4 5 6 7 7 13 20 21 24 27 29 32 34 33 32 34 36 33 30 32 35 35 33 30 27 25 23 24 25 25 25 25 24 23 21 19 16 14 12 9 7 5 3 3 3 5 8 9 10 9 8 6 5 5 5 5 5 5 5 2 2 4 6 5 4 4 2 1 1 1 1 1 2 3 5 7 8 8
6 5 7 6 5 4 3 6 3 1 1 3 6 3 2 3 5 4 1 5 4 8 10 9 14 21 21 22 26 28 31 33 33 32 34 36 34 30 30 33 33 32 30 27 24 23 24 25 25 25 24 24 23 21 19 16 15 13 11 9 6 5 6 5 5 7 8 9 9 8 7 6 6 5 5 5 5 4 2 3 5 5 5 4 4 3 2 1 2 2 2 1 1 1 0 3 4
4 4 6 4 3 5 5 5 3 4 3 2 6 3 2 3 5 4 2 4 4 7 8 9 15 22 23 22 24 27 29 30 31 31 33 35 33 30 29 29 30 30 29 26 23 23 25 25 24 24 23 23 22 21 18 17 16 15 15 13 9 8 8 7 7 8 7 8 7 7 6 6 7 6 6 5 5 5 3 3 3 3 3 3 3 3 3 4 5 6 6 4 1 2 3 3 4
3 5 5 5 5 5 4 2 4 5 2 5 7 2 3 1 5 3 1 1 4 6 6 7 12 17 21 23 25 28 29 30 30 30 30 32 31 29 28 27 28 29 27 25 24 23 25 25 24 24 23 23 23 22 20 19 19 18 17 16 13 10 8 8 8 8 6 6 6 6 6 6 7 7 6 5 6 5 3 2 2 1 1 2 2 2 3 4 5 5 4 2 1 3 4 5 5
4 4 4 3 2 4 4 4 4 4 2 6 6 1 4 2 5 4 4 4 4 6 6 7 9 14 20 23 24 27 30 29 29 29 29 29 29 29 28 28 28 28 27 26 25 24 26 27 27 26 25 25 25 25 24 22 21 20 19 18 15 11 9 8 8 6 5 6 6 6 7 7 6 6 7 7 7 7 4 2 1 2 2 2 3 3 4 4 4 3 3 4 4 4 4 4 3
5 5 5 4 1 2 1 3 1 2 3 4 2 0 2 3 6 5 6 7 6 7 8 7 8 16 22 23 24 26 27 27 27 29 30 30 30 30 29 28 28 28 28 28 27 27 28 29 30 29 29 30 30 29 26 24 22 20 18 18 16 12 9 9 8 6 5 5 6 6 6 6 6 6 6 7 8 7 4 3 5 7 8 9 8 8 8 9 9 9 8 7 6 5 5 4 4
4 4 4 4 3 3 1 3 1 1 3 3 2 1 1 3 4 5 7 8 5 2 4 4 7 13 18 20 21 22 22 23 25 28 30 31 32 31 30 29 29 29 29 29 29 30 30 31 31 31 33 34 33 31 29 26 22 19 16 16 16 11 8 10 9 6 5 5 5 5 5 5 5 5 6 7 7 7 6 7 9 10 10 10 9 8 8 9 9 9 8 7 7 6 5 5 5
3 4 6 4 4 4 3 3 3 2 2 2 3 1 2 2 3 6 6 4 6 10 11 13 14 14 15 16 15 16 16 17 21 24 26 28 29 30 30 29 29 29 29 30 31 32 33 33 33 33 35 36 36 34 30 25 20 18 16 17 15 10 9 12 11 8 6 6 6 6 6 6 6 6 7 8 9 9 9 9 9 9 9 9 8 7 7 7 8 8 7 6 6 6 5 5 5
2 2 5 2 4 5 2 2 5 4 2 0 1 2 2 2 3 6 5 5 10 13 15 19 22 21 21 21 19 16 13 10 13 16 18 20 23 26 28 29 29 29 29 30 32 34 35 34 34 35 35 37 35 30 25 20 19 20 18 17 16 13 13 16 14 11 8 7 8 7 7 7 7 8 8 9 9 9 9 8 8 8 8 8 7 7 7 8 8 8 7 7 6 6 6 5 5
1 2 3 3 4 7 5 1 1 4 3 1 1 1 3 2 2 5 6 6 8 9 10 13 19 24 25 24 23 19 12 9 9 11 12 15 17 19 21 23 25 27 28 29 31 34 35 34 34 35 35 36 33 26 23 24 28 28 22 19 19 17 17 18 15 12 11 10 10 9 8 8 9 9 9 9 9 9 8 8 8 8 8 8 8 8 8 9 9 9 9 9 8 8 8 7 7
3 2 5 2 3 5 5 2 3 5 1 3 2 0 3 1 0 5 6 5 6 7 6 7 10 19 23 22 22 19 16 13 10 9 9 11 12 13 14 15 17 19 22 23 24 28 31 33 33 34 34 32 28 21 23 27 32 31 25 23 23 20 19 17 13 11 12 12 12 11 10 10 9 9 10 10 10 10 9 9 9 9 9 9 9 10 10 10 10 10 10 10 9 9 9 9 8
4 4 3 4 3 1 2 3 2 2 2 2 3 2 1 2 2 4 3 1 3 4 4 6 7 11 18 22 22 19 18 16 13 13 13 13 13 12 11 11 12 13 15 17 17 21 27 32 32 32 32 26 20 18 21 26 32 30 25 26 26 23 21 17 12 11 12 15 15 14 13 11 10 10 10 10 10 10 9 9 9 9 9 9 10 10 11 11 11 10 10 9 8 8 8 7 7
3 2 2 3 3 4 2 3 3 4 3 2 1 2 1 4 4 4 5 5 5 4 3 4 6 8 14 21 21 19 18 17 16 16 14 13 12 11 9 8 9 9 11 12 12 14 21 26 28 28 28 24 20 19 20 24 29 26 23 27 27 25 23 18 15 13 13 14 15 14 14 12 11 11 11 11 10 9 9 8 8 8 8 8 8 9 9 9 9 8 8 7 6 5 5 4 4
3 3 4 3 2 2 2 1 2 4 5 3 2 0 4 5 4 4 6 6 7 8 5 4 6 9 13 17 19 19 18 17 16 15 13 11 9 9 8 7 7 7 7 7 6 8 11 15 18 21 23 22 20 19 18 21 25 23 22 27 28 26 23 19 18 15 12 14 15 15 14 12 11 12 11 11 11 9 9 8 7 7 6 6 6 6 6 6 6 7 6 6 5 4 3 2 2
4 3 1 1 2 3 4 1 1 2 4 4 5 2 6 5 1 2 4 3 5 7 9 8 9 13 15 16 18 17 15 15 12 11 10 9 8 8 8 7 6 5 4 4 4 5 6 8 11 14 17 18 18 17 16 18 23 24 25 28 28 26 23 20 19 16 13 16 18 15 14 13 12 11 11 11 10 9 9 8 8 7 7 6 6 5 5 5 5 5 5 5 5 5 4 4 3
Wind_Direction
138 151 164 161 159 156 165 153 129 330 90 243 267 231 254 241 240 272 281 294 242 312 17 100 113 105 98 105 119 92 46 44 137 120 155 133 143 150 151 154 155 159 159 159 165 167 169 171 174 174 171 168 166 164 162 161 158 154 150 148 148 147 146 144 143 143 144 144 145 144 142 139 137 136 134 131 130 127 125 125 127 127 125 129 130 119 123 133 136 132 130 134 140 143 145 146 147
128 148 161 158 159 157 178 144 101 323 66 299 270 180 257 293 291 255 261 288 177 136 91 97 99 91 86 94 100 74 44 41 94 104 118 143 153 153 154 156 157 160 161 160 163 167 169 173 176 176 173 170 168 166 164 163 161 157 152 149 148 149 149 147 145 144 143 144 145 143 141 137 136 136 133 132 130 128 127 128 130 129 126 127 137 120 104 121 125 119 122 131 139 142 144 147 146
130 151 155 159 162 149 146 89 87 128 112 239 268 230 271 298 264 245 267 312 166 134 106 101 89 83 83 75 58 67 70 59 104 111 122 151 156 153 159 159 159 162 161 160 161 165 167 171 176 177 176 172 170 168 166 164 162 159 154 151 150 150 151 150 148 147 144 142 143 142 142 139 137 136 134 134 132 130 129 130 128 127 130 131 137 101 95 113 122 115 116 128 140 143 144 147 147
137 149 150 158 154 129 105 65 136 124 176 219 273 263 248 249 257 260 332 356 168 155 136 128 79 75 93 94 86 85 96 96 119 122 134 158 159 155 160 160 161 160 159 161 161 161 164 170 175 177 177 174 171 170 168 165 163 161 157 153 151 151 152 152 150 150 147 143 142 140 140 139 139 139 138 137 134 132 132 132 127 125 134 134 124 111 121 141 142 129 127 128 137 144 146 148 151
152 152 156 159 146 133 96 85 124 130 219 193 217 262 258 247 271 304 333 11 195 201 221 172 93 91 89 87 90 93 114 126 139 142 151 164 161 158 160 162 162 160 159 162 162 160 161 168 174 176 176 174 172 170 169 166 166 164 159 155 152 153 154 155 154 153 151 149 145 142 141 140 140 142 141 138 134 131 130 131 128 128 133 130 123 129 140 158 148 133 131 128 135 144 148 151 155
153 155 160 143 118 128 118 127 179 207 229 164 177 261 271 266 291 310 318 357 205 209 236 217 112 109 83 69 69 97 132 139 159 159 158 162 162 162 161 163 162 160 159 159 162 162 161 165 172 174 173 173 173 171 170 169 169 167 162 157 154 154 156 157 156 155 154 152 148 145 144 142 140 140 139 136 132 128 129 129 128 130 126 126 128 134 137 139 130 124 124 126 140 146 149 153 156
153 160 161 126 78 79 122 170 206 227 243 177 183 263 275 280 292 307 309 340 111 189 208 139 114 105 70 74 68 84 139 152 162 161 160 161 163 164 162 162 160 157 158 159 161 164 162 164 169 172 172 172 173 173 172 171 172 170 166 159 156 155 155 156 155 155 153 151 148 146 144 143 140 137 136 134 131 127 125 124 125 125 122 123 123 128 124 117 116 117 123 127 146 153 153 155 155
160 165 147 121 50 37 109 198 233 218 245 233 220 263 269 278 285 292 292 290 244 175 142 130 108 88 51 90 69 92 141 157 158 159 162 160 162 163 163 160 157 156 158 159 160 163 163 163 167 168 171 172 173 175 174 174 175 173 168 162 157 154 154 154 153 153 152 149 146 145 143 141 139 136 135 132 130 126 122 122 122 120 116 118 115 116 112 106 104 109 123 127 148 159 157 157 157
157 160 135 107 117 49 20 264 268 229 256 273 259 265 269 276 280 270 265 267 226 135 128 161 109 94 102 90 83 110 138 152 147 154 161 159 162 163 160 158 157 157 157 158 158 160 160 163 166 165 169 173 174 176 176 177 177 175 170 163 157 154 153 152 151 151 149 148 145 144 142 140 137 135 134 131 129 126 124 122 120 120 116 113 110 106 98 96 99 107 129 130 145 164 164 162 161
143 140 132 90 108 69 314 278 263 259 259 263 273 274 276 278 278 262 258 254 186 121 106 125 106 113 111 86 77 112 135 147 148 153 160 160 162 160 157 159 159 157 157 158 157 158 158 158 162 164 168 171 175 176 178 178 178 176 170 162 156 153 152 150 149 148 147 145 144 143 142 139 137 136 136 134 133 130 127 125 121 123 123 120 114 106 98 93 93 103 130 136 142 164 170 167 165
118 114 107 83 80 154 243 259 264 276 272 286 288 281 289 289 282 260 247 216 160 131 120 105 97 107 101 74 73 123 143 152 158 155 159 161 160 159 159 161 160 158 157 155 156 157 154 152 158 166 164 166 172 174 177 176 176 174 168 160 155 154 150 148 147 146 145 144 144 143 142 139 138 139 140 139 138 137 132 130 127 127 128 127 121 110 103 98 91 94 117 138 141 161 175 173 169
97 345 78 97 133 188 215 240 276 289 295 306 281 297 320 311 296 224 187 153 149 142 138 123 127 119 93 54 105 138 150 157 164 155 159 160 158 160 161 162 162 160 154 151 154 155 150 151 160 165 160 159 165 169 172 170 172 170 164 159 154 152 148 146 146 144 144 143 145 145 144 142 142 144 144 144 141 142 140 138 134 132 134 131 127 113 104 103 98 91 104 135 143 158 174 178 172
150 161 88 131 181 193 210 197 277 308 307 290 247 313 329 324 311 193 154 118 134 136 129 143 145 128 92 115 130 151 157 161 164 156 162 161 160 161 162 163 161 157 152 152 156 157 152 153 161 162 158 158 160 164 167 166 167 165 159 157 152 150 146 146 145 143 144 144 146 145 146 146 148 149 148 148 144 146 147 147 144 139 141 138 132 117 109 109 105 97 100 127 145 156 171 180 176
173 173 117 176 199 205 219 194 280 334 277 281 298 318 325 333 19 169 118 82 37 110 136 146 146 121 110 130 138 162 160 164 161 159 167 162 160 160 162 160 158 155 153 158 159 159 156 157 160 158 160 161 161 163 165 164 163 162 157 155 152 149 146 146 145 144 147 147 148 146 149 153 154 154 153 153 148 150 151 153 150 144 146 143 136 124 118 117 112 103 98 116 144 155 167 178 179
198 208 110 121 304 262 226 179 208 168 254 294 323 322 327 348 40 134 94 86 54 119 138 147 147 116 156 164 174 171 160 161 160 163 166 160 160 160 161 159 158 158 158 161 160 161 160 161 161 159 164 166 167 166 166 165 163 161 157 156 153 149 148 147 147 148 151 151 151 149 152 156 158 159 158 158 153 154 158 158 154 149 153 150 143 135 134 136 123 108 99 109 140 157 164 175 180
210 233 78 103 247 247 226 190 170 174 265 283 318 337 346 2 42 49 67 119 113 125 134 145 174 248 175 169 173 169 157 158 160 163 164 159 162 160 160 161 161 161 161 164 163 165 166 167 166 165 168 168 170 168 168 168 165 163 159 158 155 152 151 151 152 152 155 153 151 151 154 158 163 168 168 168 162 163 170 169 165 162 162 158 152 149 153 158 149 126 110 112 138 159 166 173 178
200 182 83 234 218 207 221 191 160 183 269 282 319 354 8 344 36 60 95 117 111 116 104 109 234 202 169 169 166 161 154 160 161 161 163 162 164 161 162 164 163 164 166 168 169 171 170 172 172 169 170 170 170 169 170 169 167 165 161 160 158 157 157 156 158 157 159 156 155 156 158 162 166 175 178 179 177 176 180 180 181 182 181 175 164 156 161 167 175 165 135 126 141 164 170 172 176
180 126 142 223 200 204 199 178 189 195 266 295 313 345 7 332 8 50 94 97 93 93 81 86 95 130 153 160 158 158 158 162 161 161 163 164 166 164 166 166 166 168 169 173 176 175 173 176 176 172 172 173 172 171 172 172 171 169 166 166 164 164 164 164 165 164 165 163 164 164 164 167 171 182 188 190 190 192 194 191 193 201 206 206 189 168 161 163 173 189 168 147 148 166 174 174 175
180 122 176 226 198 212 212 200 236 247 266 294 303 318 339 319 345 3 78 86 84 84 73 89 97 110 139 150 154 158 161 161 162 164 164 167 170 169 169 168 171 172 171 176 179 179 177 177 178 173 172 177 176 174 175 175 175 174 175 174 171 171 172 173 173 173 173 173 175 174 174 175 179 188 193 198 201 205 204 200 204 214 221 220 206 183 169 165 168 190 189 169 155 166 175 175 175
197 169 215 244 216 232 257 250 250 257 267 287 302 314 316 304 343 21 135 109 80 112 117 109 112 126 141 148 153 158 161 163 166 166 167 170 171 172 171 171 175 174 172 176 178 181 181 179 178 173 173 180 178 177 178 178 179 181 184 181 180 181 181 181 180 184 183 182 186 186 187 186 190 195 198 203 206 211 209 207 209 217 222 214 205 187 176 171 172 190 193 180 162 166 174 175 176
195 183 207 236 206 237 267 262 258 263 266 270 294 312 316 313 359 83 146 121 24 184 166 153 145 146 148 151 156 160 163 165 168 169 168 169 171 173 174 175 177 174 172 175 178 180 179 179 178 175 179 182 180 182 182 182 185 187 189 188 188 188 191 191 188 194 194 192 196 198 199 198 203 207 213 214 211 213 210 210 213 216 213 200 195 186 181 180 186 197 193 181 168 167 171 171 176
201 224 223 242 222 233 271 271 272 273 268 270 291 307 307 322 360 101 150 164 243 204 179 172 164 159 157 158 159 162 166 168 171 172 170 170 172 173 175 177 177 176 175 178 179 176 175 179 179 180 184 185 185 187 186 188 191 192 195 195 197 198 202 204 201 206 207 205 208 211 212 213 216 217 224 222 217 217 213 211 211 210 205 191 191 189 183 175 183 197 190 180 170 166 167 166 173
224 267 246 258 247 234 272 276 278 277 270 266 264 273 291 327 339 43 115 189 217 194 180 171 166 163 162 161 161 165 169 173 174 173 172 171 171 173 175 177 176 175 177 180 178 174 176 181 181 185 189 189 189 190 191 195 197 200 202 204 207 210 214 216 217 219 220 223 226 228 226 225 227 227 228 225 221 218 215 215 210 204 196 188 191 185 173 165 170 186 183 178 171 166 166 166 171
210 263 262 266 263 253 269 275 275 271 260 260 261 273 280 277 294 31 68 127 164 172 171 163 158 159 160 160 163 168 172 175 174 173 173 173 172 173 173 174 173 173 176 177 176 174 178 184 185 188 191 192 192 193 196 200 204 209 210 213 214 219 224 226 230 231 233 237 241 243 238 235 233 233 233 230 226 218 217 220 213 203 195 189 188 176 165 166 168 174 175 177 176 172 169 169 171
207 241 254 264 270 266 272 276 274 270 258 261 263 251 261 250 114 67 82 128 149 156 159 156 153 157 161 162 166 171 174 174 172 172 174 175 174 173 173 174 174 176 177 176 178 178 181 188 189 188 190 192 194 197 200 203 209 216 219 221 222 225 229 232 236 239 242 244 247 251 249 245 241 239 237 234 231 224 219 218 216 211 203 194 189 178 169 172 171 169 172 176 181 180 172 170 172
209 226 252 268 274 274 277 274 270 269 257 255 239 229 254 202 111 66 116 137 146 149 151 153 154 159 163 165 170 173 175 173 172 174 175 175 175 174 174 176 177 178 178 179 181 182 184 189 190 188 187 190 195 199 203 206 211 217 223 226 227 229 230 234 238 240 244 245 248 251 253 253 248 246 242 237 236 231 223 217 221 226 213 198 194 187 176 177 175 171 173 176 185 187 178 175 176
258 254 269 273 275 279 275 270 272 264 244 237 203 224 251 182 144 78 147 149 150 147 148 156 158 161 165 168 174 176 177 176 175 176 173 173 175 176 177 180 182 180 181 182 183 184 185 188 189 183 181 186 192 197 203 208 212 216 222 226 228 231 231 234 238 241 246 246 246 248 251 252 250 248 243 237 235 233 228 224 227 226 213 200 197 193 184 182 178 173 174 175 184 191 191 190 188
293 297 299 282 284 285 267 266 271 245 227 226 196 224 269 172 165 160 161 160 157 152 152 161 163 164 168 172 176 179 179 178 179 178 174 174 175 176 181 185 185 183 185 185 185 185 185 187 185 176 172 177 183 191 198 201 205 210 217 223 226 228 228 229 233 241 248 246 245 246 248 250 248 246 241 234 229 230 230 228 225 219 213 206 201 198 192 187 181 175 174 175 180 188 196 202 199
295 301 304 296 331 312 261 251 236 194 198 201 159 335 299 272 194 161 162 162 160 156 155 163 167 169 172 175 179 181 181 182 182 181 179 177 177 178 181 185 189 188 188 188 187 184 183 181 175 170 169 171 177 185 190 191 197 205 211 214 218 220 219 221 230 241 248 246 244 245 247 247 247 244 238 229 219 221 226 224 219 218 220 212 208 207 201 196 189 183 179 177 178 181 185 196 199
301 312 150 303 354 324 266 235 210 183 189 180 139 294 272 288 183 159 162 164 160 159 160 165 170 173 175 179 182 182 183 186 186 185 183 181 181 180 180 185 190 188 186 189 187 180 177 171 163 166 167 170 179 184 189 190 196 203 201 200 204 210 215 221 233 241 244 245 244 247 247 243 244 241 233 222 213 216 220 220 219 222 227 219 215 216 213 210 201 193 187 182 182 179 177 187 195
319 347 57 343 352 292 292 303 244 270 238 183 152 238 249 237 172 163 166 168 163 165 168 170 172 176 179 183 185 184 186 188 189 188 188 186 183 180 183 187 186 181 180 185 186 177 170 167 162 165 169 177 186 190 195 197 203 204 194 194 198 208 218 222 230 239 244 247 248 252 252 245 241 236 227 217 213 218 219 218 222 227 231 227 225 227 229 225 215 208 200 193 193 188 182 187 195
3 359 329 327 178 270 299 296 211 211 251 183 156 222 239 174 178 171 170 171 167 166 172 174 175 178 182 186 186 185 187 188 190 192 193 190 184 182 185 184 180 179 180 183 187 178 171 171 167 169 179 186 190 198 206 213 222 213 199 198 203 213 221 221 228 240 247 251 253 257 256 251 247 241 234 227 219 220 222 220 224 230 231 229 230 236 240 232 226 226 217 205 204 200 193 194 201
359 71 246 281 288 299 310 310 232 205 215 205 178 198 181 181 189 178 172 173 170 165 171 176 179 182 185 187 187 187 187 188 191 193 195 192 186 184 183 179 175 176 183 188 190 185 178 176 175 179 186 188 195 207 215 230 233 221 213 207 206 214 219 222 229 238 247 252 256 259 257 255 254 250 245 243 235 226 227 227 228 232 232 231 232 239 245 233 227 228 225 220 213 209 207 205 207
316 10 290 261 255 283 301 308 284 211 189 216 223 201 173 184 187 180 176 173 168 165 170 178 183 185 187 188 188 189 188 188 191 192 194 193 188 185 181 178 178 179 187 191 190 190 186 182 184 188 188 192 202 205 213 228 229 224 224 222 218 219 222 226 227 231 241 248 251 255 257 254 248 244 241 243 242 234 235 237 235 236 238 240 237 237 242 233 226 225 228 231 224 215 218 217 212
233 305 340 299 284 254 264 275 287 282 224 192 190 214 175 164 180 179 176 170 167 172 176 181 185 186 189 192 190 189 188 189 189 189 192 191 189 186 183 185 185 185 193 192 188 189 189 187 190 193 192 197 202 203 215 224 225 230 235 240 238 237 240 234 231 231 234 240 242 245 250 248 240 239 239 240 242 243 246 245 241 241 244 246 242 238 238 229 224 226 229 231 225 213 214 215 213
177 202 207 266 283 264 257 255 257 271 250 197 179 189 137 158 176 170 169 169 174 184 183 179 179 183 190 194 193 190 189 189 186 187 189 189 189 187 187 190 189 193 200 196 190 189 189 189 193 196 194 199 205 207 214 215 215 226 239 247 248 247 241 228 229 233 235 239 236 233 236 237 235 237 241 240 237 238 244 245 242 243 244 246 247 248 246 234 228 229 228 226 221 213 209 210 210
166 199 223 252 268 272 273 268 287 306 175 252 185 138 124 159 173 166 164 167 176 188 187 176 176 183 192 196 195 192 191 188 185 186 187 187 188 189 190 188 190 198 201 196 193 189 191 194 198 199 194 198 207 207 205 201 201 219 244 250 250 248 237 227 233 235 237 240 234 226 225 224 223 225 229 229 225 226 234 241 247 248 245 246 250 253 251 242 235 231 227 222 216 213 213 214 214
181 210 225 257 248 261 273 272 308 8 111 311 72 129 139 160 163 162 158 164 181 179 177 182 183 186 193 197 197 193 191 188 187 188 188 187 188 189 190 189 191 193 191 190 191 191 194 197 199 201 197 198 206 209 204 201 207 226 254 255 249 246 236 228 240 246 244 241 235 228 223 218 213 214 216 213 216 225 232 239 249 256 249 244 246 249 249 245 239 230 226 224 217 215 218 220 222
158 181 175 255 256 279 296 303 323 0 94 320 90 126 142 175 170 175 171 179 192 185 184 185 184 186 193 198 196 191 189 189 191 191 190 189 188 188 190 191 189 185 184 185 188 192 195 196 199 202 198 199 206 211 211 212 216 221 236 244 236 239 237 227 234 250 242 232 233 226 223 224 222 224 225 215 210 221 231 236 240 254 253 245 243 242 242 241 235 225 224 225 224 221 223 225 226
161 188 168 257 275 316 296 311 331 348 56 117 110 104 38 334 4 223 210 204 200 193 192 188 185 187 193 195 193 189 188 190 192 193 192 189 186 187 190 192 187 182 183 184 187 192 193 196 202 202 200 202 206 210 215 220 217 211 214 218 218 230 243 240 238 239 230 225 228 222 222 228 232 235 236 233 228 226 231 231 229 238 244 238 235 232 232 234 231 225 222 222 226 228 228 230 232
260 212 170 204 260 228 225 296 332 342 7 60 79 60 338 356 112 223 245 270 239 187 191 195 192 192 196 198 195 191 189 190 191 192 192 189 186 188 190 190 187 184 185 186 189 193 197 201 203 202 202 203 205 208 212 215 210 203 202 204 210 221 236 245 247 246 241 237 237 228 224 228 235 238 237 239 241 236 235 235 236 242 241 232 227 225 226 230 232 232 229 225 227 232 234 235 239
293 242 193 191 208 233 264 335 18 25 2 349 56 67 305 320 245 223 243 245 179 176 191 203 197 195 202 202 198 194 193 193 194 195 192 188 185 186 188 190 189 188 189 191 194 199 204 204 200 201 203 202 204 207 206 205 202 201 201 201 208 219 229 238 250 257 259 259 260 253 235 221 227 233 234 237 240 242 246 247 239 229 229 228 224 223 222 225 229 230 231 228 225 227 232 237 243
291 243 197 170 149 179 293 352 70 85 296 309 46 111 225 312 288 250 252 207 198 188 202 208 197 200 206 204 199 195 196 198 199 199 195 190 186 185 187 191 193 192 193 195 199 204 208 204 200 201 202 202 205 207 204 200 199 202 206 208 216 231 233 239 251 254 257 262 264 261 249 220 214 223 229 237 244 254 266 248 172 192 206 215 219 220 218 214 212 216 220 223 225 226 229 235 241
235 228 145 126 132 165 234 94 98 177 219 321 9 96 142 309 261 256 258 175 203 213 210 211 203 205 208 206 201 197 198 200 202 202 198 194 191 189 190 193 196 197 197 200 203 207 207 201 199 201 202 204 207 208 206 203 203 208 211 214 221 236 245 259 255 247 250 256 255 252 248 232 220 221 229 247 258 261 262 142 157 180 195 208 218 224 219 186 130 119 143 179 216 229 230 232 229
242 211 128 130 163 158 125 98 91 353 59 322 327 40 113 274 268 281 75 143 201 236 220 212 208 207 208 207 203 200 200 201 203 204 201 198 196 194 194 195 198 200 202 206 209 209 204 200 201 204 205 207 207 207 207 206 210 218 223 224 224 229 240 248 233 224 234 245 248 248 247 243 238 229 233 250 252 241 209 148 156 174 189 204 217 229 251 304 354 3 6 34 55 50 278 233 219
231 157 104 75 84 90 85 99 101 30 52 240 288 343 116 272 289 310 22 114 183 240 239 224 213 206 203 204 203 202 201 202 204 204 202 202 200 198 197 197 198 202 207 212 215 211 204 202 205 205 203 202 201 202 206 209 214 222 230 232 230 231 236 234 216 208 215 229 239 246 246 246 246 242 240 237 223 214 189 142 135 154 184 215 230 250 274 298 312 312 309 309 340 56 60 74 83
138 96 70 56 41 47 53 57 84 64 7 251 261 268 121 259 288 271 248 143 193 235 257 236 217 206 199 200 201 201 201 202 201 201 202 204 203 201 199 199 200 204 209 214 218 214 206 203 204 202 201 201 202 205 208 211 216 224 232 234 232 235 238 228 211 206 213 223 230 237 238 233 234 236 235 220 202 201 191 146 96 49 305 295 292 305 315 315 309 303 301 300 116 107 99 95 89
91 77 76 98 8 20 32 352 46 88 258 258 256 260 105 163 265 267 255 263 243 224 229 226 204 190 191 194 196 200 202 201 199 198 201 204 203 201 201 202 203 205 209 213 217 214 206 206 209 208 209 211 213 214 213 212 214 219 229 234 233 239 242 224 207 205 218 228 228 229 228 220 210 211 217 213 202 199 201 181 78 51 63 74 77 75 68 62 64 74 88 99 104 109 119 125 125
86 85 77 100 31 17 14 306 8 154 235 249 244 88 101 210 245 276 284 291 282 232 226 235 196 179 185 189 192 197 200 199 199 199 202 205 204 203 204 205 206 209 212 214 215 213 212 216 218 219 221 220 216 215 215 213 210 213 223 229 233 243 244 222 204 202 215 225 224 216 215 211 200 194 198 203 202 197 191 140 109 104 105 106 106 104 100 94 92 90 91 94 99 107 117 122 126
135 130 114 127 104 82 240 263 300 237 239 267 285 248 249 266 280 303 304 304 306 216 181 182 165 170 176 176 180 186 192 197 200 202 204 206 206 207 208 209 211 214 216 217 217 216 219 223 223 225 228 226 222 219 215 208 203 208 216 224 236 243 236 220 205 193 201 210 208 198 195 198 191 179 170 174 180 174 154 132 120 117 114 114 114 110 103 97 95 96 98 101 104 107 109 109 116
185 165 131 141 149 143 204 219 187 210 228 283 305 259 170 193 291 314 316 334 46 75 96 109 113 127 139 139 148 162 173 187 197 202 206 207 209 211 211 212 215 218 221 223 221 220 224 227 228 229 231 230 226 217 208 201 199 203 209 219 228 219 212 221 208 186 189 198 192 184 183 185 180 173 160 154 158 155 148 141 133 129 126 123 120 114 108 101 96 96 98 103 109 109 108 111 115
250 148 107 144 185 150 132 181 172 168 151 271 263 217 203 208 282 325 347 27 54 68 84 96 101 109 115 111 109 114 123 147 176 190 198 206 211 214 216 217 219 223 226 227 225 224 227 230 231 234 237 230 218 203 193 196 203 203 204 214 216 204 211 221 208 186 184 194 195 187 183 185 183 178 168 159 157 154 154 152 146 142 138 133 130 123 115 106 99 95 95 97 100 99 99 101 101
215 129 157 214 174 122 107 139 72 76 108 253 249 222 308 338 337 337 358 24 32 41 61 83 102 112 111 107 105 104 108 126 155 170 181 197 205 210 216 219 223 228 230 232 231 229 231 236 236 239 237 220 203 198 200 204 210 208 209 217 214 212 220 219 207 193 188 194 199 197 194 195 192 188 182 174 169 162 158 154 149 148 143 135 131 126 116 107 101 98 98 97 95 94 93 93 90
121 189 198 169 77 91 102 108 21 48 138 270 334 285 298 16 81 321 350 26 25 17 28 51 95 115 113 111 115 123 138 152 168 179 182 192 200 202 205 212 221 228 234 237 238 236 236 239 240 242 236 210 191 208 222 214 212 213 220 226 220 218 221 216 209 205 198 197 201 201 201 202 198 196 193 188 184 177 167 159 151 146 140 133 130 126 121 115 110 107 105 102 100 99 96 94 92
120 191 184 96 99 147 90 119 125 103 181 276 343 337 251 172 211 285 311 93 70 36 44 59 74 106 114 117 122 131 142 157 179 193 197 202 204 205 203 207 218 227 237 241 240 237 234 236 238 241 241 225 206 228 239 222 216 220 229 228 220 218 218 210 204 213 209 202 203 203 202 203 202 200 200 198 195 188 180 171 160 153 147 140 134 130 126 122 118 115 111 108 104 102 99 97 94
25 42 13 47 126 157 151 141 144 144 166 218 338 4 276 223 219 230 243 220 157 142 142 111 106 114 119 124 130 137 146 160 175 180 185 189 189 195 197 206 222 227 234 235 229 226 228 233 237 241 247 247 241 246 245 227 221 226 226 217 214 216 217 209 201 210 214 207 208 209 204 203 205 204 204 203 202 196 190 184 176 170 165 159 151 144 138 134 131 128 124 122 120 115 112 107 103
9 33 9 357 44 110 136 107 94 130 141 167 154 74 272 250 208 210 245 236 186 168 163 145 132 125 123 129 135 141 149 158 164 165 169 171 172 184 192 202 217 217 216 216 202 196 210 224 232 238 243 246 246 245 242 228 218 216 212 208 210 213 215 213 206 207 215 212 211 213 209 207 209 209 208 206 204 201 197 196 193 188 182 179 174 167 164 160 155 154 155 155 157 160 158 151 152
128 106 66 145 147 122 123 122 308 107 126 161 152 159 263 262 206 249 256 235 218 185 154 147 148 139 137 138 138 139 145 150 154 157 163 166 166 174 187 194 198 197 202 209 193 175 193 217 229 239 242 241 240 237 232 223 212 207 207 208 209 211 212 213 208 207 217 216 210 210 214 215 213 216 217 213 209 207 207 208 207 208 209 205 202 199 198 200 196 195 195 193 196 201 208 210 211